Time,TemperatureF,DewpointF,PressureIn,WindDirection,WindDirectionDegrees,WindSpeedMPH,WindSpeedGustMPH,Humidity,HourlyPrecipIn,Conditions,Clouds,dailyrainin,SolarRadiationWatts/m^2,SoftwareType,DateUTC
2013-01-28 00:01:00,63.0,60.0,-100.00,SSE,156,4.0,18.0,91,0.00,,,0.00,0.000000,,2013-01-28 10:01:00,
2013-01-28 00:11:00,63.0,60.0,-100.00,SSE,156,4.0,18.0,91,0.00,,,0.00,0.000000,,2013-01-28 10:11:00,
2013-01-28 00:21:00,63.0,60.0,-100.00,SSE,156,4.0,18.0,91,0.00,,,0.00,0.000000,,2013-01-28 10:21:00,
2013-01-28 00:31:00,63.0,60.0,-100.00,SSE,156,4.0,18.0,91,0.00,,,0.00,0.000000,,2013-01-28 10:31:00,
2013-01-28 01:02:00,61.0,60.0,-100.00,SE,130,5.0,16.0,97,0.02,,,0.02,1.000000,,2013-01-28 11:02:00,
2013-01-28 01:11:00,61.0,60.0,-100.00,SE,130,5.0,16.0,97,0.02,,,0.02,1.000000,,2013-01-28 11:11:00,
2013-01-28 01:21:00,61.0,60.0,-100.00,SE,130,5.0,16.0,97,0.02,,,0.02,1.000000,,2013-01-28 11:21:00,
2013-01-28 01:32:00,61.0,60.0,-100.00,SE,130,5.0,16.0,97,0.02,,,0.02,1.000000,,2013-01-28 11:32:00,
2013-01-28 01:52:00,61.0,60.0,-100.00,SE,144,3.0,16.0,98,0.13,,,0.15,0.000000,,2013-01-28 11:52:00,
2013-01-28 02:03:00,61.0,60.0,-100.00,SE,144,3.0,16.0,98,0.13,,,0.15,0.000000,,2013-01-28 12:03:00,
2013-01-28 02:11:00,61.0,60.0,-100.00,SE,144,3.0,16.0,98,0.13,,,0.15,0.000000,,2013-01-28 12:11:00,
2013-01-28 02:23:00,61.0,60.0,-100.00,SE,144,3.0,16.0,98,0.13,,,0.15,0.000000,,2013-01-28 12:23:00,
2013-01-28 02:32:00,61.0,60.0,-100.00,SE,144,3.0,16.0,98,0.13,,,0.15,0.000000,,2013-01-28 12:32:00,
2013-01-28 03:02:00,61.0,60.0,-100.00,SE,143,3.0,9.0,98,0.28,,,0.43,0.000000,,2013-01-28 13:02:00,
2013-01-28 03:11:00,61.0,60.0,-100.00,SE,143,3.0,9.0,98,0.28,,,0.43,0.000000,,2013-01-28 13:11:00,
2013-01-28 03:22:00,61.0,60.0,-100.00,SE,143,3.0,9.0,98,0.28,,,0.43,0.000000,,2013-01-28 13:22:00,
2013-01-28 03:32:00,61.0,60.0,-100.00,SE,143,3.0,9.0,98,0.28,,,0.43,0.000000,,2013-01-28 13:32:00,
2013-01-28 04:02:00,61.0,60.0,-100.00,NNW,330,3.0,10.0,97,0.02,,,0.45,0.000000,,2013-01-28 14:02:00,
2013-01-28 04:12:00,61.0,60.0,-100.00,NNW,330,3.0,10.0,97,0.02,,,0.45,0.000000,,2013-01-28 14:12:00,
2013-01-28 04:22:00,61.0,60.0,-100.00,NNW,330,3.0,10.0,97,0.02,,,0.45,0.000000,,2013-01-28 14:22:00,
2013-01-28 04:32:00,61.0,60.0,-100.00,NNW,330,3.0,10.0,97,0.02,,,0.45,0.000000,,2013-01-28 14:32:00,
2013-01-28 05:03:00,59.0,57.0,-100.00,SE,130,7.0,12.0,93,0.02,,,0.47,0.000000,,2013-01-28 15:03:00,
2013-01-28 05:12:00,59.0,57.0,-100.00,SE,130,7.0,12.0,93,0.02,,,0.47,0.000000,,2013-01-28 15:12:00,
2013-01-28 05:23:00,59.0,57.0,-100.00,SE,130,7.0,12.0,93,0.02,,,0.47,0.000000,,2013-01-28 15:23:00,
2013-01-28 05:32:00,59.0,57.0,-100.00,SE,130,7.0,12.0,93,0.02,,,0.47,0.000000,,2013-01-28 15:32:00,
2013-01-28 05:53:00,60.0,59.0,-100.00,SE,133,5.0,15.0,95,0.03,,,0.50,0.000000,,2013-01-28 15:53:00,
2013-01-28 06:03:00,60.0,59.0,-100.00,SE,133,5.0,15.0,95,0.03,,,0.50,0.000000,,2013-01-28 16:03:00,
2013-01-28 06:12:00,60.0,59.0,-100.00,SE,133,5.0,15.0,95,0.03,,,0.50,0.000000,,2013-01-28 16:12:00,
2013-01-28 06:22:00,60.0,59.0,-100.00,SE,133,5.0,15.0,95,0.03,,,0.50,0.000000,,2013-01-28 16:22:00,
2013-01-28 06:32:00,60.0,59.0,-100.00,SE,133,5.0,15.0,95,0.03,,,0.50,0.000000,,2013-01-28 16:32:00,
2013-01-28 07:01:00,60.0,59.0,-100.00,ESE,106,2.0,11.0,98,0.02,,,0.52,0.000000,,2013-01-28 17:01:00,
2013-01-28 07:11:00,60.0,59.0,-100.00,ESE,106,2.0,11.0,98,0.02,,,0.52,0.000000,,2013-01-28 17:11:00,
2013-01-28 07:22:00,60.0,59.0,-100.00,ESE,106,2.0,11.0,98,0.02,,,0.52,0.000000,,2013-01-28 17:22:00,
2013-01-28 07:32:00,60.0,59.0,-100.00,ESE,106,2.0,11.0,98,0.02,,,0.52,0.000000,,2013-01-28 17:32:00,
2013-01-28 08:02:00,60.0,59.0,-100.00,ESE,112,4.0,7.0,98,0.06,,,0.58,0.000000,,2013-01-28 18:02:00,
2013-01-28 08:12:00,60.0,59.0,-100.00,ESE,112,4.0,7.0,98,0.06,,,0.58,0.000000,,2013-01-28 18:12:00,
2013-01-28 08:23:00,60.0,59.0,-100.00,ESE,112,4.0,7.0,98,0.06,,,0.58,0.000000,,2013-01-28 18:23:00,
2013-01-28 08:33:00,60.0,59.0,-100.00,ESE,112,4.0,7.0,98,0.06,,,0.58,0.000000,,2013-01-28 18:33:00,
2013-01-28 09:02:00,60.0,59.0,-100.00,SE,127,3.0,7.0,97,0.01,,,0.59,28.000000,,2013-01-28 19:02:00,
2013-01-28 09:12:00,60.0,59.0,-100.00,SE,127,3.0,7.0,97,0.01,,,0.59,28.000000,,2013-01-28 19:12:00,
2013-01-28 09:22:00,60.0,59.0,-100.00,SE,127,3.0,7.0,97,0.01,,,0.59,28.000000,,2013-01-28 19:22:00,
2013-01-28 09:32:00,60.0,59.0,-100.00,SE,127,3.0,7.0,97,0.01,,,0.59,28.000000,,2013-01-28 19:32:00,
2013-01-28 10:02:00,62.0,61.0,-100.00,East,87,2.0,7.0,95,0.02,,,0.61,116.000000,,2013-01-28 20:02:00,
2013-01-28 10:11:00,62.0,61.0,-100.00,East,87,2.0,7.0,95,0.02,,,0.61,116.000000,,2013-01-28 20:11:00,
2013-01-28 10:21:00,62.0,61.0,-100.00,East,87,2.0,7.0,95,0.02,,,0.61,116.000000,,2013-01-28 20:21:00,
2013-01-28 10:32:00,62.0,61.0,-100.00,East,87,2.0,7.0,95,0.02,,,0.61,116.000000,,2013-01-28 20:32:00,
2013-01-28 10:52:00,64.0,62.0,-100.00,SSE,166,1.0,5.0,93,0.01,,,0.62,220.000000,,2013-01-28 20:52:00,
2013-01-28 11:02:00,64.0,62.0,-100.00,SSE,166,1.0,5.0,93,0.01,,,0.62,220.000000,,2013-01-28 21:02:00,
2013-01-28 11:11:00,64.0,62.0,-100.00,SSE,166,1.0,5.0,93,0.01,,,0.62,220.000000,,2013-01-28 21:11:00,
2013-01-28 11:22:00,64.0,62.0,-100.00,SSE,166,1.0,5.0,93,0.01,,,0.62,220.000000,,2013-01-28 21:22:00,
2013-01-28 11:33:00,64.0,62.0,-100.00,SSE,166,1.0,5.0,93,0.01,,,0.62,220.000000,,2013-01-28 21:33:00,
2013-01-28 12:01:00,64.0,62.0,-100.00,SE,131,5.0,6.0,92,0.02,,,0.64,262.000000,,2013-01-28 22:01:00,
2013-01-28 12:11:00,64.0,62.0,-100.00,SE,131,5.0,6.0,92,0.02,,,0.64,262.000000,,2013-01-28 22:11:00,
2013-01-28 12:22:00,64.0,62.0,-100.00,SE,131,5.0,6.0,92,0.02,,,0.64,262.000000,,2013-01-28 22:22:00,
2013-01-28 12:32:00,64.0,62.0,-100.00,SE,131,5.0,6.0,92,0.02,,,0.64,262.000000,,2013-01-28 22:32:00,
2013-01-28 13:02:00,63.0,60.0,-100.00,SE,135,6.0,13.0,89,0.00,,,0.64,374.000000,,2013-01-28 23:02:00,
2013-01-28 13:11:00,63.0,60.0,-100.00,SE,135,6.0,13.0,89,0.00,,,0.64,374.000000,,2013-01-28 23:11:00,
2013-01-28 13:22:00,63.0,60.0,-100.00,SE,135,6.0,13.0,89,0.00,,,0.64,374.000000,,2013-01-28 23:22:00,
2013-01-28 13:32:00,63.0,60.0,-100.00,SE,135,6.0,13.0,89,0.00,,,0.64,374.000000,,2013-01-28 23:32:00,
2013-01-28 14:02:00,66.0,59.0,-100.00,SE,129,6.0,15.0,78,0.00,,,0.64,448.000000,,2013-01-29 00:02:00,
2013-01-28 14:12:00,66.0,59.0,-100.00,SE,129,6.0,15.0,78,0.00,,,0.64,448.000000,,2013-01-29 00:12:00,
2013-01-28 14:21:00,66.0,59.0,-100.00,SE,129,6.0,15.0,78,0.00,,,0.64,448.000000,,2013-01-29 00:21:00,
2013-01-28 14:32:00,66.0,59.0,-100.00,SE,129,6.0,15.0,78,0.00,,,0.64,448.000000,,2013-01-29 00:32:00,
2013-01-28 15:02:00,64.0,53.0,-100.00,SE,131,7.0,18.0,68,0.00,,,0.64,357.000000,,2013-01-29 01:02:00,
2013-01-28 15:11:00,64.0,53.0,-100.00,SE,131,7.0,18.0,68,0.00,,,0.64,357.000000,,2013-01-29 01:11:00,
2013-01-28 15:22:00,64.0,53.0,-100.00,SE,131,7.0,18.0,68,0.00,,,0.64,357.000000,,2013-01-29 01:22:00,
2013-01-28 15:31:00,64.0,53.0,-100.00,SE,131,7.0,18.0,68,0.00,,,0.64,357.000000,,2013-01-29 01:31:00,
2013-01-28 16:02:00,66.0,61.0,-100.00,West,280,3.0,15.0,84,0.01,,,0.65,384.000000,,2013-01-29 02:02:00,
2013-01-28 16:11:00,66.0,61.0,-100.00,West,280,3.0,15.0,84,0.01,,,0.65,384.000000,,2013-01-29 02:11:00,
2013-01-28 16:21:00,66.0,61.0,-100.00,West,280,3.0,15.0,84,0.01,,,0.65,384.000000,,2013-01-29 02:21:00,
2013-01-28 16:32:00,66.0,61.0,-100.00,West,280,3.0,15.0,84,0.01,,,0.65,384.000000,,2013-01-29 02:32:00,
2013-01-28 17:02:00,66.0,61.0,-100.00,SE,127,2.0,8.0,85,0.00,,,0.65,306.000000,,2013-01-29 03:02:00,
2013-01-28 17:11:00,66.0,61.0,-100.00,SE,127,2.0,8.0,85,0.00,,,0.65,306.000000,,2013-01-29 03:11:00,
2013-01-28 17:21:00,66.0,61.0,-100.00,SE,127,2.0,8.0,85,0.00,,,0.65,306.000000,,2013-01-29 03:21:00,
2013-01-28 17:31:00,66.0,61.0,-100.00,SE,127,2.0,8.0,85,0.00,,,0.65,306.000000,,2013-01-29 03:31:00,
2013-01-28 17:53:00,65.0,59.0,-100.00,SE,141,3.0,8.0,81,0.00,,,-99.99,244.000000,,2013-01-29 03:53:00,
2013-01-28 18:02:00,65.0,59.0,-100.00,SE,141,3.0,8.0,81,0.00,,,-99.99,244.000000,,2013-01-29 04:02:00,
2013-01-28 18:11:00,65.0,59.0,-100.00,SE,141,3.0,8.0,81,0.00,,,-99.99,244.000000,,2013-01-29 04:11:00,
2013-01-28 18:21:00,65.0,59.0,-100.00,SE,141,3.0,8.0,81,0.00,,,-99.99,244.000000,,2013-01-29 04:21:00,
2013-01-28 18:31:00,65.0,59.0,-100.00,SE,141,3.0,8.0,81,0.00,,,-99.99,244.000000,,2013-01-29 04:31:00,
2013-01-28 19:03:00,62.0,60.0,-100.00,SSE,164,4.0,7.0,93,0.00,,,0.65,66.000000,,2013-01-29 05:03:00,
2013-01-28 19:12:00,62.0,60.0,-100.00,SSE,164,4.0,7.0,93,0.00,,,0.65,66.000000,,2013-01-29 05:12:00,
2013-01-28 19:21:00,62.0,60.0,-100.00,SSE,164,4.0,7.0,93,0.00,,,0.65,66.000000,,2013-01-29 05:21:00,
2013-01-28 19:31:00,62.0,60.0,-100.00,SSE,164,4.0,7.0,93,0.00,,,0.65,66.000000,,2013-01-29 05:31:00,
2013-01-28 20:01:00,62.0,60.0,-100.00,SSE,159,3.0,10.0,93,0.00,,,0.65,2.000000,,2013-01-29 06:01:00,
2013-01-28 20:11:00,62.0,60.0,-100.00,SSE,159,3.0,10.0,93,0.00,,,0.65,2.000000,,2013-01-29 06:11:00,
2013-01-28 20:21:00,62.0,60.0,-100.00,SSE,159,3.0,10.0,93,0.00,,,0.65,2.000000,,2013-01-29 06:21:00,
2013-01-28 20:31:00,62.0,60.0,-100.00,SSE,159,3.0,10.0,93,0.00,,,0.65,2.000000,,2013-01-29 06:31:00,
2013-01-28 21:01:00,60.0,59.0,-100.00,SSE,149,3.0,8.0,96,0.00,,,0.65,0.000000,,2013-01-29 07:01:00,
2013-01-28 21:11:00,60.0,59.0,-100.00,SSE,149,3.0,8.0,96,0.00,,,0.65,0.000000,,2013-01-29 07:11:00,
2013-01-28 21:21:00,60.0,59.0,-100.00,SSE,149,3.0,8.0,96,0.00,,,0.65,0.000000,,2013-01-29 07:21:00,
2013-01-28 21:31:00,60.0,59.0,-100.00,SSE,149,3.0,8.0,96,0.00,,,0.65,0.000000,,2013-01-29 07:31:00,
2013-01-28 21:52:00,60.0,59.0,-100.00,SE,141,3.0,8.0,97,0.00,,,0.65,0.000000,,2013-01-29 07:52:00,
2013-01-28 22:02:00,60.0,59.0,-100.00,SE,141,3.0,8.0,97,0.00,,,0.65,0.000000,,2013-01-29 08:02:00,
2013-01-28 22:11:00,60.0,59.0,-100.00,SE,141,3.0,8.0,97,0.00,,,0.65,0.000000,,2013-01-29 08:11:00,
2013-01-28 22:21:00,60.0,59.0,-100.00,SE,141,3.0,8.0,97,0.00,,,0.65,0.000000,,2013-01-29 08:21:00,
2013-01-28 22:31:00,60.0,59.0,-100.00,SE,141,3.0,8.0,97,0.00,,,0.65,0.000000,,2013-01-29 08:31:00,
2013-01-28 23:01:00,62.0,53.0,-100.00,SE,142,6.0,13.0,73,0.00,,,0.65,0.000000,,2013-01-29 09:01:00,
2013-01-28 23:11:00,62.0,53.0,-100.00,SE,142,6.0,13.0,73,0.00,,,0.65,0.000000,,2013-01-29 09:11:00,
2013-01-28 23:21:00,62.0,53.0,-100.00,SE,142,6.0,13.0,73,0.00,,,0.65,0.000000,,2013-01-29 09:21:00,
2013-01-28 23:31:00,62.0,53.0,-100.00,SE,142,6.0,13.0,73,0.00,,,0.65,0.000000,,2013-01-29 09:31:00,